Hourly Weather Bolshoe Barankovo

Today, 17 June, Thursday

Time Temperature Precipitation Wind Pressure Humidity
00:00 +12°C° 0 mm 2 mps 752 mmHg 70%
01:00 +10°C° 0 mm 2 mps 752 mmHg 70%
02:00 +10°C° 0 mm 2 mps 753 mmHg 71%
03:00 +12°C° 0 mm 2 mps 753 mmHg 71%
04:00 +12°C° 0 mm 2 mps 753 mmHg 71%
05:00 +13°C° 0 mm 1 mps 753 mmHg 71%
06:00 +15°C° 0 mm 1 mps 754 mmHg 65%
07:00 +18°C° 0 mm 1 mps 754 mmHg 59%
08:00 +19°C° 0 mm 2 mps 754 mmHg 52%
09:00 +20°C° 0 mm 2 mps 754 mmHg 49%
10:00 +21°C° 0 mm 2 mps 755 mmHg 46%
11:00 +23°C° 0 mm 2 mps 755 mmHg 43%
12:00 +24°C° 0 mm 2 mps 755 mmHg 42%
13:00 +25°C° 0 mm 3 mps 755 mmHg 41%
14:00 +25°C° 0 mm 3 mps 754 mmHg 39%
15:00 +25°C° 0 mm 3 mps 755 mmHg 44%
16:00 +25°C° 0 mm 2 mps 755 mmHg 48%
17:00 +25°C° 0 mm 2 mps 755 mmHg 52%
18:00 +23°C° 0 mm 2 mps 755 mmHg 58%
19:00 +20°C° 0 mm 2 mps 755 mmHg 64%
20:00 +18°C° 0 mm 2 mps 755 mmHg 70%
21:00 +18°C° 0 mm 1 mps 755 mmHg 71%
22:00 +16°C° 0 mm 1 mps 755 mmHg 73%
23:00 +15°C° 0 mm 1 mps 756 mmHg 74%

Tomorrow, 18 June, Friday

Time Temperature Precipitation Wind Pressure Humidity
00:00 +15°C° 0 mm 1 mps 756 mmHg 76%
01:00 +14°C° 0 mm 1 mps 756 mmHg 78%
02:00 +14°C° 0 mm 1 mps 756 mmHg 79%
03:00 +15°C° 0 mm 1 mps 757 mmHg 78%
04:00 +16°C° 0 mm 1 mps 757 mmHg 77%
05:00 +18°C° 0 mm 1 mps 757 mmHg 76%
06:00 +18°C° 0 mm 2 mps 757 mmHg 69%
07:00 +20°C° 0 mm 2 mps 757 mmHg 63%
08:00 +23°C° 0 mm 2 mps 757 mmHg 57%
09:00 +24°C° 0 mm 3 mps 757 mmHg 53%
10:00 +26°C° 0 mm 3 mps 756 mmHg 48%
11:00 +27°C° 0 mm 3 mps 756 mmHg 44%
12:00 +27°C° 0 mm 3 mps 756 mmHg 44%
13:00 +28°C° 0 mm 4 mps 756 mmHg 43%
14:00 +28°C° 0 mm 4 mps 755 mmHg 42%
15:00 +28°C° 0 mm 4 mps 755 mmHg 46%
16:00 +27°C° 0 mm 4 mps 755 mmHg 50%
17:00 +27°C° 0 mm 4 mps 754 mmHg 53%
18:00 +25°C° 0 mm 3 mps 754 mmHg 61%
19:00 +22°C° 0 mm 3 mps 754 mmHg 68%
20:00 +20°C° 0 mm 3 mps 754 mmHg 76%
21:00 +20°C° 0 mm 3 mps 755 mmHg 77%
22:00 +19°C° 0 mm 3 mps 755 mmHg 79%
23:00 +18°C° 0 mm 3 mps 755 mmHg 81%

Day after tomorrow, 19 June, Saturday

Time Temperature Precipitation Wind Pressure Humidity
00:00 +17°C° 0 mm 3 mps 755 mmHg 83%
01:00 +17°C° 0 mm 3 mps 755 mmHg 86%
02:00 +16°C° 0 mm 3 mps 755 mmHg 89%
03:00 +17°C° 0 mm 3 mps 755 mmHg 87%
04:00 +18°C° 0 mm 2 mps 755 mmHg 85%
05:00 +18°C° 0 mm 2 mps 755 mmHg 83%
06:00 +20°C° 0 mm 3 mps 755 mmHg 76%
07:00 +22°C° 0 mm 3 mps 755 mmHg 69%
08:00 +25°C° 0 mm 4 mps 755 mmHg 61%
09:00 +26°C° 0 mm 4 mps 755 mmHg 57%
10:00 +27°C° 0 mm 4 mps 755 mmHg 52%
11:00 +28°C° 0 mm 4 mps 755 mmHg 48%
12:00 +29°C° 0 mm 4 mps 754 mmHg 47%
13:00 +29°C° 0 mm 4 mps 754 mmHg 45%
14:00 +30°C° 0 mm 4 mps 754 mmHg 44%
15:00 +29°C° 0 mm 4 mps 754 mmHg 47%
16:00 +29°C° 0 mm 3 mps 753 mmHg 50%
17:00 +29°C° 0 mm 3 mps 753 mmHg 54%
18:00 +27°C° 0 mm 3 mps 753 mmHg 61%
19:00 +25°C° 0 mm 3 mps 753 mmHg 69%
20:00 +22°C° 0 mm 3 mps 753 mmHg 77%
21:00 +21°C° 0 mm 3 mps 753 mmHg 81%
22:00 +20°C° 0 mm 2 mps 753 mmHg 85%
23:00 +19°C° 0 mm 2 mps 754 mmHg 88%

20 June, Sunday

Time Temperature Precipitation Wind Pressure Humidity
00:00 +18°C° 0 mm 2 mps 754 mmHg 90%
01:00 +18°C° 0 mm 2 mps 754 mmHg 91%
02:00 +17°C° 0 mm 2 mps 754 mmHg 92%
03:00 +18°C° 0 mm 2 mps 754 mmHg 90%
04:00 +19°C° 0 mm 2 mps 754 mmHg 87%
05:00 +20°C° 0 mm 2 mps 754 mmHg 85%
06:00 +21°C° 0 mm 2 mps 754 mmHg 78%
07:00 +24°C° 0 mm 2 mps 754 mmHg 70%
08:00 +26°C° 0 mm 2 mps 754 mmHg 63%
09:00 +27°C° 0 mm 2 mps 754 mmHg 59%
10:00 +28°C° 0 mm 2 mps 753 mmHg 55%
11:00 +29°C° 0 mm 3 mps 753 mmHg 51%
12:00 +30°C° 0 mm 3 mps 753 mmHg 49%
13:00 +30°C° 0 mm 3 mps 753 mmHg 47%
14:00 +31°C° 0 mm 3 mps 752 mmHg 45%
15:00 +30°C° 0 mm 3 mps 752 mmHg 48%
16:00 +30°C° 0 mm 3 mps 752 mmHg 51%
17:00 +30°C° 0 mm 2 mps 752 mmHg 54%
18:00 +28°C° 0 mm 3 mps 752 mmHg 61%
19:00 +25°C° 0 mm 3 mps 752 mmHg 68%
20:00 +22°C° 0 mm 3 mps 752 mmHg 74%
21:00 +21°C° 0 mm 3 mps 752 mmHg 76%
22:00 +20°C° 0 mm 3 mps 752 mmHg 77%
23:00 +19°C° 0 mm 2 mps 752 mmHg 79%

21 June, Monday

Time Temperature Precipitation Wind Pressure Humidity
00:00 +19°C° 0 mm 2 mps 752 mmHg 82%
01:00 +18°C° 0 mm 2 mps 752 mmHg 85%
02:00 +18°C° 0 mm 2 mps 752 mmHg 88%
03:00 +19°C° 0 mm 2 mps 752 mmHg 86%
04:00 +20°C° 0 mm 2 mps 752 mmHg 84%
05:00 +21°C° 0 mm 1 mps 752 mmHg 82%
06:00 +23°C° 0 mm 1 mps 752 mmHg 75%
07:00 +25°C° 0 mm 1 mps 752 mmHg 69%
08:00 +27°C° 0 mm 1 mps 752 mmHg 62%
09:00 +28°C° 0 mm 1 mps 752 mmHg 58%
10:00 +29°C° 0 mm 1 mps 752 mmHg 53%
11:00 +30°C° 0 mm 1 mps 752 mmHg 49%
12:00 +31°C° 0 mm 1 mps 752 mmHg 47%
13:00 +31°C° 0 mm 1 mps 752 mmHg 45%
14:00 +32°C° 0 mm 1 mps 752 mmHg 43%
15:00 +31°C° 0 mm 1 mps 752 mmHg 48%
16:00 +31°C° 0 mm 1 mps 751 mmHg 52%
17:00 +30°C° 0 mm 2 mps 751 mmHg 57%
18:00 +29°C° 0 mm 2 mps 751 mmHg 62%
19:00 +27°C° 0 mm 2 mps 751 mmHg 67%
20:00 +25°C° 0 mm 2 mps 751 mmHg 73%
21:00 +25°C° 0 mm 2 mps 751 mmHg 74%
22:00 +24°C° 0 mm 2 mps 752 mmHg 74%
23:00 +23°C° 0 mm 2 mps 752 mmHg 75%

22 June, Tuesday

Time Temperature Precipitation Wind Pressure Humidity
00:00 +23°C° 0 mm 2 mps 752 mmHg 76%
01:00 +23°C° 0 mm 1 mps 752 mmHg 78%
02:00 +22°C° 0 mm 1 mps 752 mmHg 79%
03:00 +23°C° 0 mm 1 mps 752 mmHg 79%
04:00 +23°C° 0 mm 1 mps 752 mmHg 79%
05:00 +24°C° 0 mm 1 mps 753 mmHg 79%
06:00 +25°C° 0 mm 1 mps 753 mmHg 74%
07:00 +27°C° 0 mm 1 mps 753 mmHg 68%
08:00 +28°C° 0 mm 1 mps 753 mmHg 62%
09:00 +29°C° 0 mm 1 mps 753 mmHg 57%
10:00 +30°C° 0 mm 1 mps 753 mmHg 53%
11:00 +32°C° 0 mm 2 mps 753 mmHg 48%
12:00 +32°C° 0 mm 2 mps 753 mmHg 46%
13:00 +32°C° 0 mm 2 mps 753 mmHg 44%
14:00 +34°C° 0 mm 2 mps 752 mmHg 41%
15:00 +32°C° 0 mm 2 mps 752 mmHg 46%
16:00 +32°C° 0 mm 2 mps 752 mmHg 50%
17:00 +31°C° 0 mm 2 mps 752 mmHg 54%
18:00 +29°C° 0 mm 2 mps 752 mmHg 60%
19:00 +27°C° 0 mm 2 mps 752 mmHg 66%
20:00 +25°C° 0 mm 2 mps 752 mmHg 72%
21:00 +25°C° 0 mm 2 mps 752 mmHg 73%
22:00 +24°C° 0 mm 2 mps 752 mmHg 74%
23:00 +23°C° 0 mm 1 mps 753 mmHg 74%
Show more